sat.trackr.live / text

‹ back to catalog

METEOSAT-11 (MSG-4)

NORAD 40732 · 2015-034A

PAYLOAD ACTIVE UNKNOWN

§ Identity

Operator
Country
EUME
Launch date
2015-07-15
Launch site
FRGUI
Launch vehicle
Mass (kg)
RCS (m²)
4.00

Purposes: comms, earth_obs

External: N2YO · Heavens-Above · Gunter

§ Orbital elements

Epoch: 2026-09-15T20:38:17.588256Z

Period
1,436.07 min
Inclination
3.4230°
Eccentricity
0.0000590
Mean motion
1.00273367 rev/d
Perigee alt
35,783.7 km
Apogee alt
35,788.6 km
Semi-major
42,164.3 km
B*
0.0000e+0
RAAN
70.4502°
Arg perigee
80.2829°
Mean anomaly
162.9113°
Rev number
812

§ Raw data

METEOSAT-11 (MSG-4)1 40732U 15034A   26258.85992579  .00000057  00000+0  00000+0 0  99962 40732   3.4230  70.4502 0000590  80.2829 162.9113  1.00273367  8124

JSON: /api/v1/satellites/40732 · /tle

For live sub-satellite position, see the globe view (requires WebGL).

§ Visibility from observer

Set your observer location to see the next 7 days of passes ≥ 10°. The values pass through the URL so the page stays shareable.

No JS? Fill the form by hand. The geolocation button needs JavaScript.